Location: ??????
(55.6361°N, 38.0803°E)
Time: 03:32:09
(UTC+00:00)

Cosmos 990 Rocket - Pass Details

Date: 30 March 2020
Orbit: 746 x 770 km, 74.0° (Epoch: 31 May)

Event Time Altitude Azimuth Distance (km) Brightness Sun altitude
Exits shadow 01:28:26 16° 212° (SSW) 1,909 5.5 -13.5°
Maximum altitude 01:32:38 80° 298° (WNW) 765 3.9 -13.0°
Drops below altitude 10° 01:37:49 10° 27° (NNE) 2,280 7.3 -12.3°
Sets 01:40:12 0° 28° (NNE) 3,211 8.2 -12.0°
